Regional Weather Roundup
Issued by NWS Albany, NY

Home | Current Version | Previous Version | Text Only | Print | Product List | Glossary On
Versions: 1 2 3 4 5 6 7 8 9 10 11 12 13 14 15 16 17 18 19 20 21 22 23 24 25 26 27
000
ASUS41 KALY 262010
RWRALY

NEW YORK STATE HOURLY WEATHER ROUNDUP
NATIONAL WEATHER SERVICE ALBANY NY
400 PM EDT TUE SEP 26 2017

NOTE: "FAIR" INDICATES FEW OR NO CLOUDS BELOW 12,000 FEET WITH NO
SIGNIFICANT WEATHER AND/OR NO OBSTRUCTIONS TO VISIBILITY.

NYZ032-033-038>043-046>054-057>066-NYZ062>081-082-084-262100-
EAST


CITY           SKY/WX    TMP DP  RH WIND       PRES   REMARKS
ALBANY         PTSUNNY   90  65  43 CALM      29.97F HX  92
GLENS FALLS    PTSUNNY   87  68  52 S6        29.95F HX  90
POUGHKEEPSIE   SUNNY     88  65  46 SE6       29.96F HX  90
NEWBURGH       MOSUNNY   86  68  54 VRB5      30.00F
MONTGOMERY     SUNNY     88  68  51 N5        29.97  HX  91
WHITE PLAINS   MOSUNNY   81  66  60 SE7       29.99F
ISLIP          PTSUNNY   77  68  73 VRB3      29.98F
NEW YORK CITY  CLOUDY    79  68  69 NE10      29.98F
CENTRAL PARK   CLOUDY    82  64  54 VRB3      30.01F
$$

NYZ005>009-017-018-044>046-055-056-262100-
CENTRAL


CITY           SKY/WX    TMP DP  RH WIND       PRES   REMARKS
FULTON         SUNNY     89  68  49 S3        29.96F HX  93
SYRACUSE       PTSUNNY   89  66  46 CALM      29.95F HX  91
ROME           MOSUNNY   86  65  49 CALM      29.97F
ELMIRA         SUNNY     90  66  45 CALM      29.97F HX  92
BINGHAMTON     MOSUNNY   83  60  45 S3        30.02F
$$

NYZ026>034-041>043-087-262100-
NORTH


CITY           SKY/WX    TMP DP  RH WIND       PRES   REMARKS
WATERTOWN      SUNNY     84  70  62 W8        29.95F HAZE
FORT DRUM      NOT AVBL
OGDENSBURG     FAIR      85  67  55 CALM      29.95
MASSENA        PTSUNNY   85  70  60 SW5       29.95F
SARANAC LAKE   SUNNY     85  57  38 S6        30.01F
PLATTSBURGH    MOSUNNY   84  67  56 SE7       29.95F
$$

NYZ001>004-010>016-019>021-085-262100-
WEST


CITY           SKY/WX    TMP DP  RH WIND       PRES   REMARKS
NIAGARA FALLS  SUNNY     90  61  37 SW10      29.96F HX  90
BUFFALO        MOSUNNY   87  63  44 SW13      29.97F
DUNKIRK        SUNNY     83  63  50 W6        29.98F
JAMESTOWN      MOSUNNY   83  64  52 CALM      30.04F
WELLSVILLE     SUNNY     87  60  40 VRB5      30.06F
ROCHESTER      MOSUNNY   87  70  56 NE8       29.96F HX  92
PENN YAN       SUNNY     88  67  49 CALM      29.99F HX  91
$$

             KEY
       WCI = WIND CHILL INDEX
       VSB = VISIBILITY
       HX  = HEAT INDEX
$$




USA.gov is the U.S. government's official web portal to all federal, state and local government web resources and services.